WJA746 CYYC-CYXU

Flight info

Callsign WJA746
Flight time 3h 7m
Altitude 39000
Route NOSIV Q909 DESNU DCT FAR DCT GRB DCT HOCKE
Aircraft B737/M-SDE2E3FGHIRWXY/LB1

Departure

Time 2026-04-28 11:31
Airport Calgary International Airport (CYYC)

Arrival

Time 2026-04-28 14:38
Airport London International Airport (CYXU)
Time Latitude Longitude Altitude Speed Heading
2026-04-28 11:05 51.12863 -114.00750 3556 ft 0 kts 281°
2026-04-28 11:20 51.12862 -114.00744 3558 ft 3 kts 276°
2026-04-28 11:20 51.12864 -114.00723 3556 ft 3 kts 263°
2026-04-28 11:21 51.12869 -114.00706 3557 ft 4 kts 184°
2026-04-28 11:21 51.12889 -114.00704 3556 ft 4 kts 194°
2026-04-28 11:21 51.12901 -114.00685 3558 ft 4 kts 270°
2026-04-28 11:21 51.12900 -114.00649 3557 ft 4 kts 316°
2026-04-28 11:22 51.12880 -114.00640 3557 ft 3 kts
2026-04-28 11:22 51.12854 -114.00640 3555 ft 4 kts
2026-04-28 11:22 51.12827 -114.00641 3557 ft 4 kts
2026-04-28 11:22 51.12799 -114.00641 3555 ft 4 kts
2026-04-28 11:23 51.12778 -114.00641 3557 ft 4 kts
2026-04-28 11:23 51.12750 -114.00641 3557 ft 4 kts 355°
2026-04-28 11:23 51.12725 -114.00633 3557 ft 4 kts 332°
2026-04-28 11:23 51.12706 -114.00611 3555 ft 4 kts 298°
2026-04-28 11:24 51.12700 -114.00571 3556 ft 4 kts 269°
2026-04-28 11:24 51.12701 -114.00559 3557 ft 0 kts 270°
2026-04-28 11:26 51.12695 -114.00615 3558 ft 8 kts 242°
2026-04-28 11:26 51.12655 -114.00642 3558 ft 11 kts 179°
2026-04-28 11:26 51.12614 -114.00727 3558 ft 12 kts 270°
2026-04-28 11:27 51.12614 -114.00863 3558 ft 13 kts 270°
2026-04-28 11:27 51.12614 -114.01011 3558 ft 14 kts 269°
2026-04-28 11:27 51.12606 -114.01169 3558 ft 15 kts 265°
2026-04-28 11:27 51.12603 -114.01339 3558 ft 16 kts 270°
2026-04-28 11:28 51.12603 -114.01519 3558 ft 17 kts 270°
2026-04-28 11:28 51.12603 -114.01704 3558 ft 16 kts 270°
2026-04-28 11:28 51.12683 -114.01795 3558 ft 16 kts 360°
2026-04-28 11:28 51.12789 -114.01795 3555 ft 15 kts 360°
2026-04-28 11:29 51.12893 -114.01795 3556 ft 15 kts 360°
2026-04-28 11:29 51.12993 -114.01794 3555 ft 14 kts
2026-04-28 11:29 51.13082 -114.01824 3558 ft 13 kts 315°
2026-04-28 11:29 51.13097 -114.01963 3559 ft 13 kts 270°
2026-04-28 11:30 51.13093 -114.02102 3560 ft 13 kts 249°
2026-04-28 11:30 51.12355 -114.02136 3558 ft 134 kts 180°
2026-04-28 11:30 51.11210 -114.02139 3902 ft 185 kts 180°
2026-04-28 11:31 51.09889 -114.02115 5166 ft 189 kts 181°
2026-04-28 11:31 51.08554 -114.02008 6412 ft 196 kts 181°
2026-04-28 11:31 51.07129 -114.01909 7315 ft 214 kts 177°
2026-04-28 11:31 51.05652 -114.01253 8144 ft 235 kts 152°
2026-04-28 11:32 51.04385 -113.99479 9011 ft 252 kts 126°
2026-04-28 11:32 51.03508 -113.97075 10167 ft 252 kts 109°
2026-04-28 11:32 51.03041 -113.94381 10860 ft 260 kts 97°
2026-04-28 11:32 51.02738 -113.91434 11194 ft 280 kts 97°
2026-04-28 11:33 51.02375 -113.88225 11397 ft 310 kts 99°
2026-04-28 11:33 51.01890 -113.84722 11642 ft 338 kts 102°
2026-04-28 11:33 51.01279 -113.80983 12062 ft 357 kts 104°
2026-04-28 11:33 51.00577 -113.77137 12841 ft 365 kts 105°
2026-04-28 11:34 50.99821 -113.73263 13735 ft 370 kts 106°
2026-04-28 11:34 50.99028 -113.69345 14559 ft 375 kts 107°
2026-04-28 11:34 50.98222 -113.65442 15434 ft 378 kts 107°
2026-04-28 11:34 50.97394 -113.61471 16346 ft 381 kts 107°
2026-04-28 11:35 50.96554 -113.57461 17229 ft 385 kts 106°
2026-04-28 11:35 50.95705 -113.53408 18095 ft 389 kts 106°
2026-04-28 11:35 50.94834 -113.49262 18870 ft 394 kts 106°
2026-04-28 11:35 50.93974 -113.45171 19575 ft 398 kts 106°
2026-04-28 11:36 50.93092 -113.40983 20290 ft 402 kts 106°
2026-04-28 11:36 50.92202 -113.36762 20988 ft 406 kts 106°
2026-04-28 11:36 50.91297 -113.32488 21679 ft 411 kts 106°
2026-04-28 11:36 50.90253 -113.28244 22351 ft 417 kts 114°
2026-04-28 11:37 50.88794 -113.24229 23015 ft 423 kts 120°
2026-04-28 11:37 50.87217 -113.20265 23659 ft 428 kts 120°
2026-04-28 11:37 50.85600 -113.16280 24189 ft 432 kts 121°
2026-04-28 11:37 50.83963 -113.12253 24736 ft 436 kts 120°
2026-04-28 11:38 50.82316 -113.08181 25232 ft 441 kts 120°
2026-04-28 11:38 50.80682 -113.04118 25743 ft 445 kts 120°
2026-04-28 11:38 50.79020 -112.99968 26264 ft 448 kts 120°
2026-04-28 11:38 50.77348 -112.95784 26766 ft 452 kts 120°
2026-04-28 11:39 50.75664 -112.91565 27252 ft 455 kts 120°
2026-04-28 11:39 50.73960 -112.87301 27728 ft 459 kts 120°
2026-04-28 11:39 50.72248 -112.83024 28188 ft 463 kts 120°
2026-04-28 11:39 50.70520 -112.78713 28617 ft 467 kts 120°
2026-04-28 11:40 50.68774 -112.74366 29059 ft 470 kts 120°
2026-04-28 11:40 50.67014 -112.69991 29495 ft 473 kts 120°
2026-04-28 11:40 50.65264 -112.65649 29911 ft 477 kts 121°
2026-04-28 11:40 50.63472 -112.61213 30294 ft 480 kts 121°
2026-04-28 11:41 50.61671 -112.56760 30624 ft 482 kts 121°
2026-04-28 11:41 50.59862 -112.52297 30976 ft 484 kts 121°
2026-04-28 11:41 50.58044 -112.47818 31317 ft 486 kts 121°
2026-04-28 11:41 50.56226 -112.43347 31713 ft 486 kts 121°
2026-04-28 11:42 50.54408 -112.38885 32192 ft 483 kts 121°
2026-04-28 11:42 50.52596 -112.34445 32698 ft 481 kts 121°
2026-04-28 11:42 50.50785 -112.30014 33139 ft 480 kts 121°
2026-04-28 11:42 50.48999 -112.25651 33525 ft 479 kts 121°
2026-04-28 11:43 50.47195 -112.21250 33915 ft 479 kts 121°
2026-04-28 11:43 50.45392 -112.16860 34293 ft 478 kts 121°
2026-04-28 11:43 50.43590 -112.12479 34596 ft 477 kts 121°
2026-04-28 11:43 50.41790 -112.08110 34865 ft 478 kts 121°
2026-04-28 11:44 50.39983 -112.03731 35120 ft 479 kts 121°
2026-04-28 11:44 50.38168 -111.99341 35406 ft 478 kts 122°
2026-04-28 11:44 50.36359 -111.94973 35695 ft 478 kts 122°
2026-04-28 11:44 50.34544 -111.90599 35956 ft 478 kts 122°
2026-04-28 11:45 50.32729 -111.86231 36210 ft 479 kts 122°
2026-04-28 11:45 50.30935 -111.81920 36467 ft 479 kts 122°
2026-04-28 11:45 50.29114 -111.77552 36733 ft 479 kts 122°
2026-04-28 11:45 50.27294 -111.73195 36978 ft 479 kts 122°
2026-04-28 11:46 50.25470 -111.68834 37224 ft 479 kts 122°
2026-04-28 11:46 50.23645 -111.64476 37465 ft 479 kts 122°
2026-04-28 11:46 50.21820 -111.60127 37710 ft 480 kts 122°
2026-04-28 11:46 50.19984 -111.55761 37886 ft 481 kts 122°
2026-04-28 11:47 50.18145 -111.51393 38115 ft 481 kts 122°
2026-04-28 11:47 50.16303 -111.47024 38375 ft 481 kts 122°
2026-04-28 11:47 50.14463 -111.42669 38619 ft 481 kts 122°
2026-04-28 11:47 50.12621 -111.38315 38809 ft 481 kts 122°
2026-04-28 11:48 50.10777 -111.33963 38972 ft 481 kts 122°
2026-04-28 11:48 50.08928 -111.29603 39115 ft 482 kts 122°
2026-04-28 11:48 50.05330 -111.20825 39097 ft 482 kts 116°
2026-04-28 11:49 50.03085 -111.11104 39093 ft 476 kts 102°
2026-04-28 11:49 50.01573 -111.01110 39068 ft 474 kts 101°
2026-04-28 11:50 50.00067 -110.91138 39067 ft 473 kts 102°
2026-04-28 11:50 49.98515 -110.81184 39049 ft 474 kts 102°
2026-04-28 11:51 49.96933 -110.71246 39049 ft 474 kts 102°
2026-04-28 11:51 49.95334 -110.61295 39118 ft 475 kts 102°
2026-04-28 11:52 49.93721 -110.51314 39117 ft 477 kts 102°
2026-04-28 11:52 49.92099 -110.41328 39116 ft 478 kts 103°
2026-04-28 11:53 49.90464 -110.31324 39109 ft 479 kts 103°
2026-04-28 11:53 49.88828 -110.21366 39106 ft 480 kts 103°
2026-04-28 11:54 49.87169 -110.11334 39105 ft 480 kts 103°
2026-04-28 11:54 49.85504 -110.01318 39099 ft 480 kts 103°
2026-04-28 11:55 49.83828 -109.91300 39102 ft 480 kts 103°
2026-04-28 11:55 49.82146 -109.81302 39114 ft 479 kts 103°
2026-04-28 11:56 49.80457 -109.71322 39097 ft 479 kts 103°
2026-04-28 11:56 49.78764 -109.61371 39101 ft 478 kts 104°
2026-04-28 11:57 49.77063 -109.51437 39107 ft 477 kts 104°
2026-04-28 11:57 49.75357 -109.41524 39108 ft 477 kts 104°
2026-04-28 11:58 49.73652 -109.31677 39107 ft 477 kts 104°
2026-04-28 11:58 49.71927 -109.21764 39106 ft 476 kts 104°
2026-04-28 11:59 49.70197 -109.11887 39109 ft 476 kts 104°
2026-04-28 11:59 49.68459 -109.02013 39117 ft 476 kts 104°
2026-04-28 12:00 49.66716 -108.92168 39116 ft 476 kts 104°
2026-04-28 12:00 49.64975 -108.82386 39123 ft 476 kts 104°
2026-04-28 12:01 49.63212 -108.72533 39130 ft 476 kts 104°
2026-04-28 12:01 49.61438 -108.62674 39129 ft 476 kts 104°
2026-04-28 12:02 49.59657 -108.52827 39126 ft 477 kts 104°
2026-04-28 12:02 49.57867 -108.42988 39143 ft 477 kts 105°
2026-04-28 12:03 49.56068 -108.33149 39139 ft 477 kts 105°
2026-04-28 12:03 49.54260 -108.23317 39144 ft 477 kts 105°
2026-04-28 12:04 49.52454 -108.13546 39156 ft 477 kts 105°
2026-04-28 12:04 49.50628 -108.03723 39152 ft 477 kts 105°
2026-04-28 12:05 49.48794 -107.93905 39151 ft 477 kts 105°
2026-04-28 12:05 49.46951 -107.84092 39145 ft 477 kts 105°
2026-04-28 12:06 49.45100 -107.74288 39161 ft 477 kts 105°
2026-04-28 12:06 49.43242 -107.64495 39159 ft 477 kts 105°
2026-04-28 12:07 49.41377 -107.54718 39161 ft 477 kts 105°
2026-04-28 12:07 49.39514 -107.45003 39161 ft 477 kts 105°
2026-04-28 12:08 49.37630 -107.35230 39163 ft 477 kts 105°
2026-04-28 12:08 49.35738 -107.25462 39165 ft 477 kts 105°
2026-04-28 12:09 49.33839 -107.15708 39162 ft 477 kts 106°
2026-04-28 12:09 49.31933 -107.05970 39169 ft 477 kts 106°
2026-04-28 12:10 49.30030 -106.96295 39166 ft 477 kts 106°
2026-04-28 12:10 49.28106 -106.86564 39173 ft 477 kts 106°
2026-04-28 12:11 49.26175 -106.76846 39165 ft 477 kts 106°
2026-04-28 12:11 49.24233 -106.67120 39173 ft 477 kts 106°
2026-04-28 12:12 49.22284 -106.57406 39179 ft 477 kts 106°
2026-04-28 12:12 49.20326 -106.47698 39179 ft 477 kts 107°
2026-04-28 12:13 49.18374 -106.38067 39178 ft 477 kts 107°
2026-04-28 12:13 49.16399 -106.28369 39182 ft 477 kts 107°
2026-04-28 12:14 49.14417 -106.18684 39183 ft 478 kts 107°
2026-04-28 12:14 49.12763 -106.10640 39182 ft 478 kts 107°
2026-04-28 12:15 49.10763 -106.00953 39194 ft 478 kts 107°
2026-04-28 12:15 49.08756 -105.91282 39188 ft 478 kts 107°
2026-04-28 12:16 49.06740 -105.81613 39193 ft 478 kts 107°
2026-04-28 12:16 49.04717 -105.71957 39193 ft 478 kts 107°
2026-04-28 12:17 49.02680 -105.62283 39194 ft 479 kts 107°
2026-04-28 12:17 49.00653 -105.52698 39196 ft 479 kts 108°
2026-04-28 12:18 48.98601 -105.43045 39196 ft 479 kts 108°
2026-04-28 12:18 48.96541 -105.33397 39196 ft 479 kts 108°
2026-04-28 12:19 48.94470 -105.23743 39196 ft 479 kts 108°
2026-04-28 12:19 48.92394 -105.14112 39195 ft 479 kts 108°
2026-04-28 12:20 48.90311 -105.04493 39204 ft 479 kts 108°
2026-04-28 12:20 48.88232 -104.94940 39183 ft 479 kts 108°
2026-04-28 12:21 48.86134 -104.85343 39172 ft 479 kts 108°
2026-04-28 12:21 48.84024 -104.75734 39148 ft 479 kts 108°
2026-04-28 12:22 48.81907 -104.66140 39132 ft 479 kts 108°
2026-04-28 12:22 48.79783 -104.56554 39127 ft 479 kts 108°
2026-04-28 12:23 48.77649 -104.46972 39131 ft 479 kts 109°
2026-04-28 12:23 48.75506 -104.37392 39135 ft 480 kts 109°
2026-04-28 12:24 48.73355 -104.27817 39152 ft 480 kts 109°
2026-04-28 12:24 48.71210 -104.18314 39173 ft 480 kts 109°
2026-04-28 12:25 48.69043 -104.08758 39192 ft 480 kts 109°
2026-04-28 12:25 48.66868 -103.99208 39211 ft 480 kts 109°
2026-04-28 12:26 48.64685 -103.89665 39213 ft 480 kts 109°
2026-04-28 12:26 48.62493 -103.80125 39214 ft 480 kts 109°
2026-04-28 12:27 48.60304 -103.70641 39215 ft 480 kts 109°
2026-04-28 12:27 48.58099 -103.61130 39210 ft 480 kts 109°
2026-04-28 12:28 48.55881 -103.51608 39209 ft 480 kts 110°
2026-04-28 12:28 48.53658 -103.42103 39200 ft 480 kts 110°
2026-04-28 12:29 48.50307 -103.27857 39199 ft 480 kts 110°
2026-04-28 12:30 48.48064 -103.18373 39191 ft 480 kts 110°
2026-04-28 12:30 48.45814 -103.08896 39191 ft 480 kts 110°
2026-04-28 12:31 48.43568 -102.99482 39190 ft 480 kts 110°
2026-04-28 12:31 48.41297 -102.90004 39183 ft 481 kts 110°
2026-04-28 12:32 48.39015 -102.80517 39182 ft 481 kts 110°
2026-04-28 12:32 48.36731 -102.71067 39166 ft 481 kts 111°
2026-04-28 12:33 48.34437 -102.61614 39174 ft 481 kts 111°
2026-04-28 12:33 48.32135 -102.52167 39174 ft 481 kts 111°
2026-04-28 12:34 48.29839 -102.42788 39172 ft 481 kts 111°
2026-04-28 12:34 48.27518 -102.33345 39172 ft 481 kts 111°
2026-04-28 12:35 48.25192 -102.23920 39166 ft 481 kts 111°
2026-04-28 12:35 48.22855 -102.14492 39166 ft 482 kts 111°
2026-04-28 12:36 48.20510 -102.05073 39174 ft 482 kts 111°
2026-04-28 12:36 48.18158 -101.95664 39163 ft 482 kts 111°
2026-04-28 12:37 48.15813 -101.86320 39164 ft 482 kts 111°
2026-04-28 12:37 48.13446 -101.76932 39162 ft 482 kts 111°
2026-04-28 12:38 48.11070 -101.67544 39157 ft 482 kts 111°
2026-04-28 12:38 48.08688 -101.58170 39152 ft 482 kts 111°
2026-04-28 12:39 48.06298 -101.48807 39137 ft 482 kts 112°
2026-04-28 12:39 48.03901 -101.39450 39145 ft 482 kts 112°
2026-04-28 12:40 48.01498 -101.30111 39148 ft 482 kts 112°
2026-04-28 12:40 47.99085 -101.20774 39158 ft 482 kts 112°
2026-04-28 12:41 47.96682 -101.11506 39158 ft 482 kts 112°
2026-04-28 12:41 47.94252 -101.02178 39143 ft 482 kts 112°
2026-04-28 12:42 47.91814 -100.92855 39145 ft 482 kts 112°
2026-04-28 12:42 47.89370 -100.83546 39142 ft 482 kts 112°
2026-04-28 12:43 47.86912 -100.74225 39145 ft 482 kts 113°
2026-04-28 12:43 47.84466 -100.64982 39152 ft 483 kts 113°
2026-04-28 12:44 47.81994 -100.55678 39152 ft 483 kts 113°
2026-04-28 12:44 47.79515 -100.46386 39153 ft 483 kts 113°
2026-04-28 12:45 47.77026 -100.37094 39152 ft 483 kts 113°
2026-04-28 12:45 47.74531 -100.27818 39155 ft 483 kts 113°
2026-04-28 12:46 47.72030 -100.18553 39160 ft 483 kts 114°
2026-04-28 12:46 47.69535 -100.09347 39155 ft 483 kts 114°
2026-04-28 12:47 47.67017 -100.00093 39161 ft 483 kts 114°
2026-04-28 12:47 47.64487 -99.90834 39163 ft 484 kts 114°
2026-04-28 12:48 47.61954 -99.81598 39171 ft 484 kts 114°
2026-04-28 12:48 47.59411 -99.72359 39160 ft 484 kts 114°
2026-04-28 12:49 47.56863 -99.63139 39164 ft 484 kts 114°
2026-04-28 12:49 47.54322 -99.53980 39168 ft 483 kts 114°
2026-04-28 12:50 47.51759 -99.44781 39164 ft 484 kts 115°
2026-04-28 12:50 47.49186 -99.35578 39161 ft 484 kts 115°
2026-04-28 12:51 47.46608 -99.26393 39160 ft 484 kts 115°
2026-04-28 12:51 47.44024 -99.17220 39150 ft 483 kts 115°
2026-04-28 12:52 47.41429 -99.08045 39148 ft 483 kts 115°
2026-04-28 12:52 47.38839 -98.98922 39151 ft 483 kts 115°
2026-04-28 12:53 47.36228 -98.89761 39153 ft 484 kts 115°
2026-04-28 12:53 47.33611 -98.80609 39143 ft 484 kts 115°
2026-04-28 12:54 47.30983 -98.71458 39141 ft 485 kts 115°
2026-04-28 12:54 47.28363 -98.62366 39131 ft 485 kts 115°
2026-04-28 12:55 47.25720 -98.53230 39124 ft 485 kts 116°
2026-04-28 12:55 47.23063 -98.44080 39128 ft 485 kts 116°
2026-04-28 12:56 47.20397 -98.34934 39128 ft 486 kts 116°
2026-04-28 12:56 47.17727 -98.25806 39118 ft 486 kts 116°
2026-04-28 12:57 47.15045 -98.16674 39122 ft 487 kts 116°
2026-04-28 12:57 47.12353 -98.07540 39125 ft 487 kts 116°
2026-04-28 12:58 47.09654 -97.98415 39105 ft 487 kts 116°
2026-04-28 12:58 47.06963 -97.89352 39119 ft 487 kts 116°
2026-04-28 12:59 47.04244 -97.80229 39109 ft 488 kts 116°
2026-04-28 12:59 47.01521 -97.71123 39118 ft 488 kts 116°
2026-04-28 13:00 46.98787 -97.62016 39121 ft 488 kts 116°
2026-04-28 13:00 46.96508 -97.54450 39120 ft 488 kts 116°
2026-04-28 13:01 46.93311 -97.43874 39106 ft 488 kts 116°
2026-04-28 13:01 46.90556 -97.34795 39104 ft 488 kts 116°
2026-04-28 13:02 46.88241 -97.27194 39111 ft 488 kts 116°
2026-04-28 13:02 46.85491 -97.18193 39111 ft 488 kts 116°
2026-04-28 13:03 46.82710 -97.09120 39108 ft 489 kts 116°
2026-04-28 13:03 46.79925 -97.00067 39105 ft 489 kts 116°
2026-04-28 13:04 46.77130 -96.91010 39096 ft 489 kts 116°
2026-04-28 13:04 46.74492 -96.81868 39105 ft 490 kts 110°
2026-04-28 13:05 46.72497 -96.72413 39107 ft 491 kts 108°
2026-04-28 13:05 46.70597 -96.62852 39112 ft 491 kts 108°
2026-04-28 13:06 46.68644 -96.53286 39104 ft 491 kts 108°
2026-04-28 13:06 46.66649 -96.43776 39107 ft 491 kts 109°
2026-04-28 13:07 46.64630 -96.34267 39097 ft 491 kts 109°
2026-04-28 13:07 46.62606 -96.24781 39084 ft 491 kts 109°
2026-04-28 13:08 46.60577 -96.15307 39076 ft 491 kts 109°
2026-04-28 13:08 46.58555 -96.05899 39067 ft 490 kts 109°
2026-04-28 13:09 46.56513 -95.96443 39067 ft 490 kts 109°
2026-04-28 13:09 46.54464 -95.86997 39065 ft 490 kts 109°
2026-04-28 13:10 46.52409 -95.77568 39065 ft 489 kts 109°
2026-04-28 13:10 46.50349 -95.68158 39071 ft 489 kts 109°
2026-04-28 13:11 46.48279 -95.58745 39047 ft 489 kts 110°
2026-04-28 13:11 46.46219 -95.49421 39038 ft 488 kts 110°
2026-04-28 13:12 46.44138 -95.40041 39015 ft 488 kts 110°
2026-04-28 13:12 46.42049 -95.30669 39021 ft 488 kts 110°
2026-04-28 13:13 46.39954 -95.21310 39023 ft 488 kts 110°
2026-04-28 13:13 46.37852 -95.11960 39022 ft 488 kts 110°
2026-04-28 13:14 46.35742 -95.02616 39017 ft 488 kts 110°
2026-04-28 13:14 46.33637 -94.93336 39021 ft 488 kts 110°
2026-04-28 13:15 46.31510 -94.83998 39016 ft 489 kts 110°
2026-04-28 13:15 46.29373 -94.74655 39026 ft 488 kts 110°
2026-04-28 13:16 46.27235 -94.65350 38970 ft 487 kts 110°
2026-04-28 13:16 46.25091 -94.56059 38984 ft 487 kts 110°
2026-04-28 13:17 46.22955 -94.46842 38981 ft 486 kts 110°
2026-04-28 13:17 46.20800 -94.37584 38968 ft 486 kts 110°
2026-04-28 13:18 46.18642 -94.28351 38979 ft 485 kts 110°
2026-04-28 13:18 46.16478 -94.19134 38984 ft 485 kts 111°
2026-04-28 13:19 46.14308 -94.09926 38984 ft 485 kts 111°
2026-04-28 13:19 46.12128 -94.00716 38986 ft 484 kts 111°
2026-04-28 13:20 46.09960 -93.91596 38958 ft 484 kts 111°
2026-04-28 13:20 46.07771 -93.82424 38972 ft 484 kts 111°
2026-04-28 13:21 46.05575 -93.73260 38979 ft 484 kts 111°
2026-04-28 13:21 46.03367 -93.64085 38980 ft 485 kts 111°
2026-04-28 13:22 46.01149 -93.54909 38994 ft 485 kts 111°
2026-04-28 13:22 45.98940 -93.45804 39003 ft 485 kts 111°
2026-04-28 13:23 45.96704 -93.36625 39016 ft 486 kts 111°
2026-04-28 13:23 45.94460 -93.27453 39019 ft 486 kts 111°
2026-04-28 13:24 45.92209 -93.18290 39005 ft 486 kts 111°
2026-04-28 13:24 45.89950 -93.09129 39002 ft 486 kts 112°
2026-04-28 13:25 45.87686 -92.99986 38990 ft 486 kts 112°
2026-04-28 13:25 45.85426 -92.90894 38965 ft 486 kts 112°
2026-04-28 13:26 45.83144 -92.81755 38936 ft 486 kts 112°
2026-04-28 13:26 45.80860 -92.72640 38937 ft 486 kts 112°
2026-04-28 13:27 45.78567 -92.63525 38941 ft 486 kts 112°
2026-04-28 13:27 45.76267 -92.54422 38949 ft 485 kts 112°
2026-04-28 13:28 45.73965 -92.45345 38934 ft 485 kts 112°
2026-04-28 13:28 45.71655 -92.36272 38949 ft 485 kts 112°
2026-04-28 13:29 45.69339 -92.27216 38926 ft 485 kts 113°
2026-04-28 13:29 45.67030 -92.18218 38920 ft 485 kts 113°
2026-04-28 13:30 45.64697 -92.09161 38934 ft 485 kts 113°
2026-04-28 13:30 45.62355 -92.00105 38930 ft 486 kts 113°
2026-04-28 13:31 45.58823 -91.86518 38924 ft 486 kts 113°
2026-04-28 13:31 45.56473 -91.77518 38919 ft 487 kts 113°
2026-04-28 13:32 45.54101 -91.68470 38929 ft 487 kts 113°
2026-04-28 13:32 45.51718 -91.59415 38935 ft 487 kts 113°
2026-04-28 13:33 45.49325 -91.50359 38909 ft 488 kts 114°
2026-04-28 13:33 45.46924 -91.41305 38903 ft 488 kts 114°
2026-04-28 13:34 45.44517 -91.32262 38892 ft 489 kts 114°
2026-04-28 13:34 45.42099 -91.23214 38895 ft 489 kts 114°
2026-04-28 13:35 45.39672 -91.14165 38900 ft 489 kts 114°
2026-04-28 13:35 45.37242 -91.05141 38881 ft 489 kts 114°
2026-04-28 13:36 45.34816 -90.96167 38899 ft 489 kts 114°
2026-04-28 13:36 45.32371 -90.87154 38856 ft 489 kts 114°
2026-04-28 13:37 45.29918 -90.78147 38867 ft 489 kts 114°
2026-04-28 13:37 45.27456 -90.69141 38856 ft 489 kts 115°
2026-04-28 13:38 45.24986 -90.60137 38853 ft 489 kts 115°
2026-04-28 13:38 45.22507 -90.51138 38866 ft 489 kts 115°
2026-04-28 13:39 45.20039 -90.42209 38861 ft 489 kts 115°
2026-04-28 13:39 45.17551 -90.33242 38862 ft 489 kts 115°
2026-04-28 13:40 45.15050 -90.24260 38865 ft 489 kts 115°
2026-04-28 13:40 45.12543 -90.15289 38869 ft 489 kts 115°
2026-04-28 13:41 45.10033 -90.06341 38861 ft 489 kts 115°
2026-04-28 13:41 45.07527 -89.97441 38811 ft 489 kts 115°
2026-04-28 13:42 45.04999 -89.88496 38822 ft 489 kts 115°
2026-04-28 13:42 45.02462 -89.79552 38820 ft 490 kts 115°
2026-04-28 13:43 44.99920 -89.70620 38847 ft 490 kts 115°
2026-04-28 13:43 44.97369 -89.61689 38837 ft 490 kts 115°
2026-04-28 13:44 44.94829 -89.52832 38841 ft 490 kts 115°
2026-04-28 13:44 44.92264 -89.43917 38839 ft 490 kts 116°
2026-04-28 13:45 44.89689 -89.35000 38825 ft 490 kts 116°
2026-04-28 13:45 44.87108 -89.26092 38813 ft 490 kts 116°
2026-04-28 13:46 44.84517 -89.17185 38786 ft 491 kts 116°
2026-04-28 13:46 44.81938 -89.08349 38794 ft 491 kts 116°
2026-04-28 13:47 44.79335 -88.99463 38811 ft 491 kts 116°
2026-04-28 13:47 44.76720 -88.90568 38829 ft 492 kts 116°
2026-04-28 13:48 44.74096 -88.81671 38846 ft 492 kts 116°
2026-04-28 13:48 44.71466 -88.72787 38863 ft 492 kts 116°
2026-04-28 13:49 44.68830 -88.63913 38864 ft 492 kts 116°
2026-04-28 13:49 44.66187 -88.55046 38828 ft 492 kts 116°
2026-04-28 13:50 44.63550 -88.46232 38805 ft 492 kts 116°
2026-04-28 13:50 44.61328 -88.38827 38807 ft 491 kts 116°
2026-04-28 13:51 44.58691 -88.30064 38778 ft 490 kts 117°
2026-04-28 13:51 44.56031 -88.21255 38792 ft 490 kts 117°
2026-04-28 13:52 44.53798 -88.12198 38754 ft 493 kts 109°
2026-04-28 13:52 44.51939 -88.02944 38747 ft 493 kts 109°
2026-04-28 13:53 44.50089 -87.93691 38752 ft 493 kts 109°
2026-04-28 13:53 44.48181 -87.84461 38741 ft 493 kts 110°
2026-04-28 13:54 44.46241 -87.75265 38744 ft 493 kts 110°
2026-04-28 13:54 44.44283 -87.66056 38735 ft 493 kts 110°
2026-04-28 13:55 44.42336 -87.56930 38751 ft 493 kts 110°
2026-04-28 13:55 44.40366 -87.47727 38751 ft 493 kts 110°
2026-04-28 13:56 44.38393 -87.38544 38753 ft 493 kts 110°
2026-04-28 13:56 44.36410 -87.29360 38749 ft 493 kts 110°
2026-04-28 13:57 44.34424 -87.20197 38782 ft 493 kts 110°
2026-04-28 13:57 44.32428 -87.11032 38783 ft 493 kts 110°
2026-04-28 13:58 44.30440 -87.01944 38805 ft 493 kts 110°
2026-04-28 13:58 44.28433 -86.92803 38786 ft 492 kts 111°
2026-04-28 13:59 44.26420 -86.83681 38798 ft 491 kts 111°
2026-04-28 13:59 44.24403 -86.74575 38803 ft 491 kts 111°
2026-04-28 14:00 44.22380 -86.65483 38807 ft 490 kts 111°
2026-04-28 14:00 44.20349 -86.56393 38794 ft 490 kts 111°
2026-04-28 14:01 44.18319 -86.47345 38813 ft 489 kts 111°
2026-04-28 14:01 44.16296 -86.38368 38807 ft 488 kts 111°
2026-04-28 14:02 44.14256 -86.29351 38822 ft 487 kts 111°
2026-04-28 14:02 44.12210 -86.20350 38823 ft 488 kts 111°
2026-04-28 14:03 44.10157 -86.11349 38805 ft 488 kts 112°
2026-04-28 14:03 44.08095 -86.02349 38804 ft 488 kts 112°
2026-04-28 14:04 44.06037 -85.93405 38789 ft 489 kts 112°
2026-04-28 14:04 44.03956 -85.84396 38768 ft 489 kts 112°
2026-04-28 14:05 44.01867 -85.75389 38773 ft 489 kts 112°
2026-04-28 14:05 43.99770 -85.66384 38775 ft 490 kts 112°
2026-04-28 14:06 43.97663 -85.57372 38776 ft 490 kts 112°
2026-04-28 14:06 43.95551 -85.48377 38787 ft 490 kts 112°
2026-04-28 14:07 43.93432 -85.39389 38755 ft 490 kts 112°
2026-04-28 14:07 43.91306 -85.30406 38737 ft 490 kts 113°
2026-04-28 14:08 43.89182 -85.21470 38737 ft 491 kts 113°
2026-04-28 14:08 43.87033 -85.12465 38740 ft 492 kts 113°
2026-04-28 14:09 43.84876 -85.03458 38730 ft 492 kts 113°
2026-04-28 14:09 43.82706 -84.94436 38758 ft 493 kts 113°
2026-04-28 14:10 43.80534 -84.85439 38782 ft 493 kts 113°
2026-04-28 14:10 43.78365 -84.76495 38792 ft 493 kts 114°
2026-04-28 14:11 43.76360 -84.68253 38795 ft 494 kts 114°
2026-04-28 14:11 43.74161 -84.59249 38787 ft 493 kts 114°
2026-04-28 14:12 43.71958 -84.50265 38781 ft 493 kts 114°
2026-04-28 14:12 43.69751 -84.41301 38767 ft 492 kts 114°
2026-04-28 14:13 43.67538 -84.32350 38797 ft 491 kts 114°
2026-04-28 14:13 43.65323 -84.23422 38799 ft 491 kts 114°
2026-04-28 14:14 43.63103 -84.14507 38801 ft 491 kts 115°
2026-04-28 14:14 43.60886 -84.05643 38786 ft 491 kts 115°
2026-04-28 14:15 43.58648 -83.96728 38823 ft 491 kts 115°
2026-04-28 14:15 43.56403 -83.87817 38790 ft 492 kts 115°
2026-04-28 14:16 43.54144 -83.78888 38801 ft 492 kts 115°
2026-04-28 14:16 43.51881 -83.69972 38801 ft 493 kts 115°
2026-04-28 14:17 43.49608 -83.61066 38243 ft 502 kts 115°
2026-04-28 14:17 43.48450 -83.56538 37575 ft 500 kts 115°
2026-04-28 14:17 43.47296 -83.52026 36864 ft 498 kts 115°
2026-04-28 14:18 43.46146 -83.47534 36168 ft 497 kts 116°
2026-04-28 14:18 43.44996 -83.43057 35378 ft 496 kts 116°
2026-04-28 14:18 43.43840 -83.38568 34509 ft 499 kts 116°
2026-04-28 14:18 43.42670 -83.34058 33676 ft 501 kts 117°
2026-04-28 14:19 43.41480 -83.29523 32652 ft 505 kts 117°
2026-04-28 14:19 43.40288 -83.24970 31702 ft 506 kts 116°
2026-04-28 14:19 43.39139 -83.20474 31014 ft 502 kts 115°
2026-04-28 14:19 43.37984 -83.15967 30340 ft 498 kts 115°
2026-04-28 14:20 43.36826 -83.11491 29625 ft 494 kts 116°
2026-04-28 14:20 43.35672 -83.07062 28860 ft 490 kts 116°
2026-04-28 14:20 43.34527 -83.02683 28148 ft 484 kts 116°
2026-04-28 14:20 43.33390 -82.98352 27461 ft 479 kts 115°
2026-04-28 14:21 43.32267 -82.94077 26786 ft 473 kts 115°
2026-04-28 14:21 43.31154 -82.89846 26117 ft 468 kts 115°
2026-04-28 14:21 43.30050 -82.85659 25465 ft 463 kts 115°
2026-04-28 14:21 43.28959 -82.81523 24799 ft 459 kts 114°
2026-04-28 14:22 43.27873 -82.77415 24112 ft 455 kts 114°
2026-04-28 14:22 43.26796 -82.73345 23468 ft 451 kts 113°
2026-04-28 14:22 43.25910 -82.69223 22693 ft 451 kts 103°
2026-04-28 14:22 43.25423 -82.65038 22027 ft 446 kts 101°
2026-04-28 14:23 43.24977 -82.60847 21350 ft 441 kts 101°
2026-04-28 14:23 43.24539 -82.56706 20691 ft 436 kts 101°
2026-04-28 14:23 43.24099 -82.52613 20046 ft 432 kts 101°
2026-04-28 14:23 43.23654 -82.48570 19410 ft 427 kts 101°
2026-04-28 14:24 43.23205 -82.44556 18750 ft 424 kts 101°
2026-04-28 14:24 43.22753 -82.40570 18098 ft 421 kts 101°
2026-04-28 14:24 43.22301 -82.36622 17418 ft 416 kts 101°
2026-04-28 14:24 43.21856 -82.32739 16830 ft 410 kts 101°
2026-04-28 14:25 43.21414 -82.28900 16205 ft 405 kts 101°
2026-04-28 14:25 43.20973 -82.25094 15579 ft 402 kts 101°
2026-04-28 14:25 43.20537 -82.21330 14961 ft 398 kts 101°
2026-04-28 14:25 43.20102 -82.17593 14342 ft 395 kts 101°
2026-04-28 14:26 43.19675 -82.13934 13711 ft 393 kts 101°
2026-04-28 14:26 43.19244 -82.10245 13033 ft 391 kts 102°
2026-04-28 14:26 43.18815 -82.06584 12389 ft 387 kts 102°
2026-04-28 14:26 43.18388 -82.02950 11761 ft 384 kts 102°
2026-04-28 14:27 43.17963 -81.99342 11119 ft 382 kts 102°
2026-04-28 14:27 43.17538 -81.95744 10481 ft 380 kts 103°
2026-04-28 14:27 43.17125 -81.92249 10303 ft 364 kts 103°
2026-04-28 14:27 43.16733 -81.88926 10121 ft 350 kts 103°
2026-04-28 14:28 43.16352 -81.85700 9962 ft 336 kts 103°
2026-04-28 14:28 43.15980 -81.82579 9631 ft 329 kts 104°
2026-04-28 14:28 43.15609 -81.79500 9231 ft 326 kts 104°
2026-04-28 14:28 43.15242 -81.76461 8823 ft 321 kts 104°
2026-04-28 14:29 43.14883 -81.73483 8420 ft 313 kts 104°
2026-04-28 14:29 43.14534 -81.70582 8036 ft 304 kts 104°
2026-04-28 14:29 43.14193 -81.67761 7671 ft 297 kts 104°
2026-04-28 14:29 43.13863 -81.65037 7303 ft 291 kts 104°
2026-04-28 14:30 43.13534 -81.62336 6949 ft 284 kts 103°
2026-04-28 14:30 43.13212 -81.59690 6607 ft 279 kts 103°
2026-04-28 14:30 43.12896 -81.57097 6268 ft 274 kts 103°
2026-04-28 14:30 43.12584 -81.54544 5933 ft 271 kts 104°
2026-04-28 14:31 43.12274 -81.52015 5617 ft 266 kts 103°
2026-04-28 14:31 43.11971 -81.49538 5252 ft 262 kts 104°
2026-04-28 14:31 43.11673 -81.47107 4970 ft 254 kts 104°
2026-04-28 14:31 43.11390 -81.44790 4858 ft 240 kts 104°
2026-04-28 14:32 43.11119 -81.42587 4746 ft 233 kts 104°
2026-04-28 14:32 43.10862 -81.40405 4663 ft 232 kts 98°
2026-04-28 14:32 43.11169 -81.38237 4462 ft 238 kts 56°
2026-04-28 14:32 43.12201 -81.36493 4285 ft 237 kts 45°
2026-04-28 14:33 43.13310 -81.34816 4017 ft 236 kts 45°
2026-04-28 14:33 43.14387 -81.33179 3856 ft 224 kts 45°
2026-04-28 14:33 43.15130 -81.31413 3715 ft 217 kts 84°
2026-04-28 14:33 43.14861 -81.29491 3617 ft 204 kts 131°
2026-04-28 14:34 43.12998 -81.26599 3220 ft 196 kts 146°
2026-04-28 14:34 43.12029 -81.25393 2980 ft 180 kts 149°
2026-04-28 14:34 43.11410 -81.24650 2821 ft 171 kts 150°
2026-04-28 14:35 43.10279 -81.23291 2530 ft 155 kts 150°
2026-04-28 14:35 43.09519 -81.22375 2358 ft 137 kts 152°
2026-04-28 14:35 43.08824 -81.21540 2160 ft 131 kts 152°
2026-04-28 14:35 43.08150 -81.20730 1984 ft 126 kts 153°
2026-04-28 14:36 43.07510 -81.19959 1812 ft 120 kts 154°
2026-04-28 14:36 43.06889 -81.19213 1670 ft 119 kts 149°
2026-04-28 14:36 43.06264 -81.18461 1489 ft 119 kts 146°
2026-04-28 14:36 43.05664 -81.17734 1341 ft 115 kts 146°
2026-04-28 14:37 43.05052 -81.16991 1225 ft 118 kts 144°
2026-04-28 14:37 43.04455 -81.16251 1062 ft 116 kts 146°
2026-04-28 14:37 43.03837 -81.15539 910 ft 111 kts 145°
2026-04-28 14:37 43.03383 -81.14990 909 ft 57 kts 139°
2026-04-28 14:38 43.03185 -81.14752 907 ft 31 kts 139°
2026-04-28 14:38 43.03033 -81.14571 907 ft 21 kts 140°
2026-04-28 14:38 43.02971 -81.14545 907 ft 14 kts 205°
2026-04-28 14:38 43.02919 -81.14610 910 ft 13 kts 228°
2026-04-28 14:39 43.02886 -81.14708 907 ft 11 kts 300°
2026-04-28 14:39 43.02943 -81.14776 907 ft 11 kts 319°
2026-04-28 14:39 43.02997 -81.14841 907 ft 9 kts 318°
2026-04-28 14:39 43.02997 -81.14887 907 ft 3 kts 224°
2026-04-28 14:40 43.02976 -81.14899 907 ft 2 kts 193°
2026-04-28 14:40 43.02970 -81.14900 907 ft 2 kts 193°
2026-04-28 14:40 43.02953 -81.14906 907 ft 0 kts 193°